W1LH-10 Weather Reports


time (UTC)temp
C
wind
direction
speed
KPH
gust
KPH
rain 1hr
cm
rain 24hr
cm
rain mn
cm
humidity
%
barometer
mb
20260504210334 8 302 9.7 0.0 0.00 0.00 0.15 85 1003.9
20260504203329 7 265 8.0 0.0 0.00 0.00 0.15 82 1003.7
20260504200324 7 315 8.0 0.0 0.00 0.00 0.15 82 1003.8
20260504193334 7 307 9.7 0.0 0.00 0.00 0.15 81 1003.5
20260504190330 7 253 9.7 0.0 0.00 0.00 0.15 73 1003.7
20260504183341 7 316 6.4 0.0 0.00 0.00 0.15 74 1003.8
20260504180338 7 262 9.7 0.0 0.00 0.00 0.15 78 1004.0
20260504173325 7 229 14.5 0.0 0.00 0.00 0.10 84 1003.9
20260504170320 10 300 16.1 0.0 0.00 0.00 0.00 68 1003.1
20260504160336 11 244 11.3 0.0 0.00 0.00 0.00 60 1003.4
20260504150315 9 273 12.9 0.0 0.00 0.00 0.00 62 1004.4
20260504140329 8 288 9.7 0.0 0.00 0.00 0.00 63 1004.9
20260504130320 6 311 9.7 0.0 0.00 0.00 0.00 69 1005.2
20260504110332 1 338 11.3 0.0 0.00 0.00 0.00 85 1004.4
20260504100356 0 336 12.9 0.0 0.00 0.00 0.00 86 1003.3
20260504080353 0 9 14.5 0.0 0.00 0.00 0.00 68 1002.2
20260504070316 0 24 11.3 0.0 0.00 0.00 0.00 66 1001.8
20260504050344 2 304 11.3 0.0 0.00 0.00 0.00 65 1001.4
20260504043322 3 342 9.7 0.0 0.00 0.00 0.00 64 1001.4
20260504040336 3 337 11.3 0.0 0.00 0.00 2.39 64 1001.1
20260504033323 3 333 11.3 0.0 0.00 0.00 2.39 64 1000.7
20260504030322 3 65 11.3 0.0 0.00 0.00 2.39 64 1000.5
20260504023313 3 26 12.9 0.0 0.00 0.00 2.39 64 1000.5
20260504020335 3 20 11.3 0.0 0.00 0.00 2.39 64 1000.4
20260504013328 3 360 11.3 0.0 0.00 0.00 2.39 64 1000.3
20260504010340 3 44 16.1 0.0 0.00 0.00 2.39 64 1000.1
20260504003335 3 61 17.7 0.0 0.00 0.00 2.39 63 999.6
20260504000333 3 17 16.1 0.0 0.00 0.00 2.36 64 999.5
20260503233317 3 342 14.5 0.0 0.00 0.00 2.34 64 999.2
20260503230334 3 329 16.1 0.0 0.00 0.00 2.31 64 999.0
20260503223330 3 5 16.1 0.0 0.00 0.00 2.29 64 999.0
20260503220331 2 82 16.1 0.0 0.00 0.00 2.26 64 998.8
20260503213322 2 24 16.1 0.0 0.00 0.00 2.24 64 999.1